Погода в Смилтене

Латвия     57°25′23″N   25°54′32″E
темп.,
°C
ветер,
м/с
пор.,
м/с
влажн.,
%
обл.,
%
осадки,
мм/ч
давл.,
гПа
погр.,
м
5 марта, пт
пт523:00−3з49770 0.0 1010688
02:00−3зсз498148 0.1 1010767
05:00−3ссз5975100 0.6 10111096
08:00−4сз485782 0.6 10121085
11:00−2ссз484224 0.0 10141816
14:00−1сз464059 0.0 10151814
17:00−2с3561100 0.2 10161044
20:00−4сз127989 0.4 101840
6 марта, сб
сб623:00−5ссз25680 0.0 1020223
02:00−5зсз26700 0.0 1022221
05:00−6зсз26770 0.0 1022222
08:00−6з38760 0.0 1022379
11:00−1зюз59555 0.0 10201213
14:00+1зюз6135151 0.0 10161483
17:00+1зюз71649100 0.0 10121516
20:000зюз81855100 0.0 10091322
7 марта, вс
вс723:00−1зюз81691100 0.3 10041250
02:00−2сз81291100 3.8 1002987
05:00−4сз7156067 0.4 10031803
08:00−4зсз6135350 0.4 10041564
11:00−1зсз8145065 0.1 10032088
14:00−1з8144883 0.3 10002171
17:00−2зсз71459100 0.4 9991968
20:00−5сз71369100 0.5 10011492
8 марта, пн
пн823:00−6ссз51071100 0.1 10051377
02:00−7ссз497058 0.2 1008816
05:00−8сз26811 0.0 1009289
08:00−7ссз478650 0.2 1011760
11:00−7с4762100 0.1 10131093
14:00−6с5759100 0.1 10151172
17:00−7с4763100 0.0 10171074
20:00−9с397377 0.0 1020643
9 марта, вт
вт923:00−10ссз26780 0.0 1022223
02:00−10сз24830 0.0 1023113
05:00−10зсз22830 0.0 102471
08:00−9з26750 0.0 1025212
11:00−3з36550 0.0 1025685
14:00−1з47480 0.0 10251153
17:00−2з485024 0.0 1024906
20:00−5зюз4125722 0.0 1025482